Breckenridge, TX

4:58 AM CDT on March 29, 2017 (GMT -0500)
Stephens County

Weather History for KBKD - August, 2013

Change the Weather History Date:

Tuesday, August 6, 2013

  Actual Average (KMWL) Record (KMWL)
Temperature  
Mean Temperature 92 °F -  
Max Temperature 103 °F 95 °F 109 °F (2003)
Min Temperature 80 °F 71 °F 69 °F (2005)
Cooling Degree Days 26    
Growing Degree Days 42 (Base 50)    
Moisture  
Dew Point 61 °F    
Average Humidity 37    
Maximum Humidity 65    
Minimum Humidity 21    
Precipitation  
Precipitation 0.00 in - - ()
Sea Level Pressure  
Sea Level Pressure 29.87 in    
Wind  
Wind Speed 11 mph (South)    
Max Wind Speed 18 mph    
Max Gust Speed 28 mph    
Visibility 10 miles    
Events      
Averages and records for this station are not official NWS values.
T = Trace of Precipitation, MM = Missing Value Source: NWS Daily Summary

Daily Weather History Graph

Daily Weather History Graph

Search for Another Location

Airport or City:

Trip Planner

Search our weather history database for the weather conditions in past years. The results will help you decide how hot, cold, wet, or windy it might be!

Date:

Astronomy

Aug. 06, 2013 Rise Set
Actual Time 6:53 AM CDT 8:29 PM CDT
Civil Twilight 6:26 AM CDT 8:55 PM CDT
Nautical Twilight 5:54 AM CDT 9:27 PM CDT
Astronomical Twilight 5:21 AM CDT 10:00 PM CDT
Moon 6:42 AM CDT (8/6) 8:09 PM CDT (8/6)
Length of Visible Light 14h 29m
Length of Day
13h 36m
Waning Crescent, 0% of the Moon is Illuminated
Aug 6
Waning Crescent
Aug 6
New
Aug 14
First Quarter
Aug 20
Full
Aug 28
Last Quarter

Hourly Weather History & Observations

Time (CDT) Temp. Heat Index Dew Point Humidity Pressure Visibility Wind Dir Wind Speed Gust Speed Precip Events Conditions
12:15 AM 88.2 °F 87.1 °F 58.1 °F 36% 29.89 in 10.0 mi SSE 9.2 mph - N/A   Clear
12:35 AM 87.8 °F 86.9 °F 58.3 °F 37% 29.90 in 10.0 mi SSE 10.4 mph - N/A   Clear
12:55 AM 86.9 °F 86.1 °F 58.6 °F 38% 29.90 in 10.0 mi SSE 10.4 mph - N/A   Clear
1:15 AM 86.4 °F 85.6 °F 58.6 °F 39% 29.89 in 10.0 mi SSE 9.2 mph - N/A   Clear
1:35 AM 85.8 °F 85.2 °F 59.0 °F 40% 29.89 in 10.0 mi SSE 10.4 mph - N/A   Clear
1:55 AM 85.5 °F 85.0 °F 59.0 °F 41% 29.89 in 10.0 mi SSE 9.2 mph - N/A   Clear
2:15 AM 85.1 °F 84.6 °F 59.0 °F 41% 29.90 in 10.0 mi SSE 10.4 mph - N/A   Clear
2:35 AM 85.1 °F 84.6 °F 59.0 °F 41% 29.90 in 10.0 mi South 11.5 mph 16.1 mph N/A   Clear
2:55 AM 85.1 °F 84.8 °F 59.9 °F 42% 29.89 in 10.0 mi South 10.4 mph - N/A   Clear
3:15 AM 85.6 °F 85.7 °F 60.8 °F 43% 29.89 in 10.0 mi South 12.7 mph 19.6 mph N/A   Clear
3:35 AM 85.1 °F 85.7 °F 62.1 °F 46% 29.89 in 10.0 mi South 12.7 mph 20.7 mph N/A   Clear
3:55 AM 84.4 °F 85.2 °F 62.6 °F 48% 29.89 in 10.0 mi South 13.8 mph 18.4 mph N/A   Clear
4:15 AM 83.8 °F 84.9 °F 63.5 °F 50% 29.89 in 10.0 mi South 12.7 mph 17.3 mph N/A   Clear
4:35 AM 83.5 °F 84.9 °F 64.4 °F 52% 29.88 in 10.0 mi South 11.5 mph 18.4 mph N/A   Clear
4:55 AM 83.3 °F 84.8 °F 64.8 °F 53% 29.88 in 10.0 mi South 11.5 mph 17.3 mph N/A   Clear
5:15 AM 82.9 °F 85.0 °F 65.7 °F 56% 29.88 in 10.0 mi South 11.5 mph - N/A   Clear
5:35 AM 82.4 °F 84.6 °F 66.4 °F 58% 29.88 in 10.0 mi SSW 10.4 mph 17.3 mph N/A   Clear
5:55 AM 82.4 °F 85.0 °F 67.1 °F 60% 29.88 in 10.0 mi SSW 13.8 mph 17.3 mph N/A   Clear
6:15 AM 81.9 °F 84.6 °F 67.5 °F 62% 29.89 in 10.0 mi SSW 10.4 mph 17.3 mph N/A   Clear
6:35 AM 81.5 °F 84.2 °F 67.6 °F 63% 29.89 in 10.0 mi SSW 10.4 mph 16.1 mph N/A   Clear
6:55 AM 81.0 °F 83.8 °F 68.0 °F 65% 29.90 in 10.0 mi South 8.1 mph - N/A   Clear
7:15 AM 80.8 °F 83.5 °F 68.2 °F 65% 29.91 in 10.0 mi South 9.2 mph - N/A   Clear
7:35 AM 81.5 °F 84.4 °F 68.4 °F 64% 29.91 in 10.0 mi SSW 10.4 mph - N/A   Clear
7:55 AM 82.2 °F 85.3 °F 68.4 °F 63% 29.91 in 10.0 mi SSW 9.2 mph - N/A   Clear
8:15 AM 83.5 °F 86.7 °F 68.4 °F 60% 29.91 in 10.0 mi SSW 10.4 mph 16.1 mph N/A   Clear
8:35 AM 84.9 °F 88.2 °F 68.0 °F 57% 29.92 in 10.0 mi SSW 12.7 mph 19.6 mph N/A   Clear
8:55 AM 86.0 °F 89.1 °F 67.5 °F 54% 29.92 in 10.0 mi SSW 11.5 mph 18.4 mph N/A   Clear
9:15 AM 87.6 °F 90.8 °F 67.3 °F 51% 29.93 in 10.0 mi SSW 10.4 mph 18.4 mph N/A   Clear
9:35 AM 88.5 °F 91.2 °F 66.6 °F 48% 29.92 in 10.0 mi SSW 12.7 mph - N/A   Clear
9:55 AM 89.6 °F 91.8 °F 65.8 °F 45% 29.92 in 10.0 mi SW 11.5 mph 23.0 mph N/A   Clear
10:15 AM 91.2 °F 94.1 °F 66.2 °F 44% 29.91 in 10.0 mi SSW 12.7 mph 18.4 mph N/A   Clear
10:35 AM 92.1 °F 94.4 °F 65.1 °F 41% 29.91 in 10.0 mi SSW 15.0 mph - N/A   Clear
10:55 AM 93.7 °F 95.8 °F 64.2 °F 38% 29.91 in 10.0 mi SSW 17.3 mph - N/A   Clear
11:15 AM 94.8 °F 96.2 °F 63.3 °F 35% 29.91 in 10.0 mi SW 15.0 mph 21.9 mph N/A   Clear
11:35 AM 95.7 °F 97.2 °F 62.8 °F 34% 29.91 in 10.0 mi SSW 17.3 mph 23.0 mph N/A   Clear
11:55 AM 97.7 °F 99.0 °F 62.4 °F 31% 29.91 in 10.0 mi SW 13.8 mph 20.7 mph N/A   Clear
12:15 PM 97.5 °F 98.7 °F 62.2 °F 31% 29.91 in 10.0 mi South 18.4 mph 21.9 mph N/A   Clear
12:35 PM 98.1 °F 99.1 °F 61.3 °F 30% 29.91 in 10.0 mi SW 15.0 mph 27.6 mph N/A   Clear
12:55 PM 99.5 °F 100.4 °F 61.0 °F 28% 29.90 in 10.0 mi SSW 15.0 mph 23.0 mph N/A   Clear
1:15 PM 99.3 °F 100.1 °F 60.8 °F 28% 29.89 in 10.0 mi South 11.5 mph 21.9 mph N/A   Clear
1:35 PM 100.0 °F 100.2 °F 59.9 °F 26% 29.89 in 10.0 mi South 15.0 mph 20.7 mph N/A   Clear
1:55 PM 100.4 °F 100.2 °F 58.8 °F 25% 29.88 in 10.0 mi South 13.8 mph 21.9 mph N/A   Clear
2:15 PM 101.3 °F 101.1 °F 57.9 °F 24% 29.88 in 10.0 mi SSW 15.0 mph 24.2 mph N/A   Clear
2:35 PM 101.3 °F 101.1 °F 58.3 °F 24% 29.87 in 10.0 mi SSW 13.8 mph - N/A   Clear
2:55 PM 102.4 °F 102.7 °F 58.6 °F 24% 29.86 in 10.0 mi SSW 17.3 mph - N/A   Clear
3:15 PM 102.4 °F 101.6 °F 56.1 °F 22% 29.85 in 10.0 mi SSW 18.4 mph 24.2 mph N/A   Clear
3:35 PM 102.7 °F 102.2 °F 56.7 °F 22% 29.84 in 10.0 mi SSW 9.2 mph 20.7 mph N/A   Clear
3:55 PM 102.6 °F 102.4 °F 57.9 °F 23% 29.84 in 10.0 mi South 12.7 mph 24.2 mph N/A   Clear
4:15 PM 103.1 °F 102.7 °F 57.2 °F 22% 29.83 in 10.0 mi SW 9.2 mph - N/A   Clear
4:35 PM 103.3 °F 103.5 °F 58.5 °F 23% 29.83 in 10.0 mi SSW 11.5 mph 18.4 mph N/A   Clear
4:55 PM 103.1 °F 102.1 °F 56.7 °F 21% 29.82 in 10.0 mi South 13.8 mph 17.3 mph N/A   Clear
5:15 PM 103.5 °F 102.7 °F 56.3 °F 21% 29.81 in 10.0 mi SSW 10.4 mph - N/A   Clear
5:35 PM 102.9 °F 102.4 °F 57.2 °F 22% 29.80 in 10.0 mi South 11.5 mph 16.1 mph N/A   Clear
5:55 PM 103.1 °F 102.1 °F 56.7 °F 21% 29.80 in 10.0 mi SSW 11.5 mph 20.7 mph N/A   Clear
6:15 PM 102.7 °F 101.6 °F 56.3 °F 21% 29.80 in 10.0 mi SW 10.4 mph 18.4 mph N/A   Clear
6:35 PM 102.4 °F 101.1 °F 55.2 °F 21% 29.79 in 10.0 mi South 10.4 mph 17.3 mph N/A   Clear
6:55 PM 102.2 °F 100.9 °F 55.8 °F 21% 29.79 in 10.0 mi SSW 10.4 mph 16.1 mph N/A   Clear
7:15 PM 101.8 °F 100.4 °F 54.9 °F 21% 29.79 in 10.0 mi SSW 10.4 mph - N/A   Clear
7:35 PM 100.8 °F 99.8 °F 56.3 °F 23% 29.79 in 10.0 mi South 10.4 mph - N/A   Clear
7:55 PM 99.9 °F 98.5 °F 56.3 °F 23% 29.79 in 10.0 mi SSW 9.2 mph - N/A   Clear
8:15 PM 98.6 °F 97.2 °F 56.5 °F 24% 29.79 in 10.0 mi SSE 6.9 mph - N/A   Clear
8:35 PM 97.5 °F 96.5 °F 57.6 °F 26% 29.79 in 10.0 mi SSE 11.5 mph - N/A   Clear
8:55 PM 95.7 °F 94.7 °F 58.1 °F 28% 29.79 in 10.0 mi SSE 8.1 mph - N/A   Clear
9:15 PM 94.3 °F 93.7 °F 59.0 °F 31% 29.81 in 10.0 mi SE 9.2 mph - N/A   Clear
9:35 PM 93.7 °F 93.3 °F 59.9 °F 32% 29.81 in 10.0 mi SE 10.4 mph - N/A   Clear
9:55 PM 93.0 °F 92.7 °F 60.1 °F 33% 29.82 in 10.0 mi SE 10.4 mph - N/A   Clear
10:15 PM 92.3 °F 91.6 °F 59.4 °F 33% 29.82 in 10.0 mi SE 11.5 mph - N/A   Clear
10:35 PM 91.8 °F 91.2 °F 59.5 °F 34% 29.83 in 10.0 mi SSE 12.7 mph - N/A   Clear
10:55 PM 91.4 °F 90.7 °F 59.2 °F 34% 29.83 in 10.0 mi SSE 12.7 mph 19.6 mph N/A   Clear
11:15 PM 91.6 °F 90.7 °F 58.8 °F 33% 29.83 in 10.0 mi SSE 12.7 mph 19.6 mph N/A   Clear
11:35 PM 91.6 °F 90.7 °F 58.6 °F 33% 29.83 in 10.0 mi SSE 16.1 mph - N/A   Clear
11:55 PM 91.4 °F 90.4 °F 58.3 °F 33% 29.84 in 10.0 mi SSE 12.7 mph 20.7 mph N/A   Clear